Location: Bailleul
(50.3375°N, 2.8513°E)
Time: 14:16:58
(UTC+00:00)

Cosmos 1844 Rocket - Pass Details

Date: 16 June 2021
Orbit: 823 x 846 km, 71.0° (Epoch: 30 July)

Event Time Altitude Azimuth Distance (km) Brightness Sun altitude
Rises 22:17:17 0° 324° (NW) 3,412 7.5 -13.5°
Reaches altitude 10° 22:19:58 10° 315° (NW) 2,475 6.2 -13.7°
Maximum altitude 22:24:53 31° 255° (WSW) 1,440 4.0 -13.9°
Enters shadow 22:29:06 13° 198° (SSW) 2,244 4.4 -14.2°
